TimeHST,TemperatureF,Dew PointF,Humidity,Sea Level PressureIn,VisibilityMPH,Wind Direction,Wind SpeedMPH,Gust SpeedMPH,PrecipitationIn,Events,Conditions,WindDirDegrees,DateUTC
12:54 AM,70.0,57.9,65,29.96,10.0,North,10.4,-,N/A,,Partly Cloudy,350,2013-01-19 10:54:00
1:54 AM,70.0,55.9,61,29.95,10.0,North,9.2,-,N/A,,Clear,350,2013-01-19 11:54:00
2:54 AM,68.0,53.1,59,29.95,10.0,NNE,9.2,-,N/A,,Clear,20,2013-01-19 12:54:00
3:54 AM,64.9,53.1,65,29.95,10.0,North,6.9,-,N/A,,Clear,350,2013-01-19 13:54:00
4:54 AM,68.0,54.0,61,29.96,10.0,North,11.5,-,N/A,,Partly Cloudy,360,2013-01-19 14:54:00
5:54 AM,68.0,53.1,59,29.97,10.0,North,5.8,-,N/A,,Scattered Clouds,10,2013-01-19 15:54:00
6:54 AM,69.1,54.0,58,29.99,10.0,North,15.0,-,N/A,,Scattered Clouds,350,2013-01-19 16:54:00
7:54 AM,71.1,53.1,53,30.01,10.0,North,16.1,-,N/A,,Scattered Clouds,10,2013-01-19 17:54:00
8:54 AM,72.0,52.0,49,30.03,10.0,North,10.4,-,N/A,,Partly Cloudy,360,2013-01-19 18:54:00
9:54 AM,73.9,53.1,48,30.03,10.0,North,12.7,-,N/A,,Partly Cloudy,10,2013-01-19 19:54:00
10:54 AM,75.9,54.0,46,30.03,10.0,North,15.0,-,N/A,,Partly Cloudy,360,2013-01-19 20:54:00
11:54 AM,77.0,53.1,43,30.01,10.0,North,15.0,-,N/A,,Partly Cloudy,10,2013-01-19 21:54:00
12:54 PM,78.1,55.0,45,29.98,10.0,North,10.4,-,N/A,,Scattered Clouds,350,2013-01-19 22:54:00
1:54 PM,78.1,52.0,40,29.96,10.0,North,15.0,-,N/A,,Scattered Clouds,360,2013-01-19 23:54:00
2:54 PM,77.0,53.1,43,29.95,10.0,North,12.7,-,N/A,,Clear,350,2013-01-20 00:54:00
3:54 PM,77.0,57.9,52,29.96,10.0,North,15.0,-,N/A,,Scattered Clouds,360,2013-01-20 01:54:00
4:54 PM,73.9,57.0,55,29.99,10.0,North,16.1,-,N/A,,Scattered Clouds,10,2013-01-20 02:54:00
5:54 PM,72.0,55.0,55,30.01,10.0,North,15.0,-,N/A,,Partly Cloudy,360,2013-01-20 03:54:00
6:54 PM,72.0,53.1,51,30.03,10.0,North,12.7,-,N/A,,Partly Cloudy,360,2013-01-20 04:54:00
7:54 PM,72.0,55.0,55,30.04,10.0,NNE,11.5,-,N/A,,Scattered Clouds,20,2013-01-20 05:54:00
8:54 PM,71.1,55.0,57,30.06,10.0,North,11.5,-,N/A,,Scattered Clouds,10,2013-01-20 06:54:00
9:54 PM,71.1,54.0,55,30.06,10.0,North,10.4,-,N/A,,Scattered Clouds,360,2013-01-20 07:54:00
10:54 PM,72.0,55.0,55,30.07,10.0,North,15.0,-,N/A,,Scattered Clouds,360,2013-01-20 08:54:00
11:54 PM,71.1,55.0,57,30.06,10.0,North,15.0,-,N/A,,Scattered Clouds,10,2013-01-20 09:54:00